Theta_e
338 338 336 333 331 329 326 324 323 323 319 320 318 318 318 318 316 316 314 314 311 308 308 307 305 305 305 305 304 303 303 303 303 302 301 301 302 304
337 336 335 332 329 327 324 323 323 322 323 320 320 320 318 316 316 316 314 313 311 309 309 308 305 305 305 303 302 302 302 301 301 300 300 300 301 303
336 334 331 329 327 325 323 322 320 320 321 322 320 319 317 316 314 312 312 311 311 309 308 306 305 304 303 302 301 300 299 299 299 298 298 299 300 302
333 331 329 326 325 323 321 320 319 318 319 320 317 318 317 315 314 312 311 310 309 308 307 306 305 303 301 300 299 299 298 298 298 298 298 298 299 301
330 329 329 327 325 322 319 318 318 318 318 318 317 317 315 314 313 312 310 309 308 307 305 304 304 301 300 300 299 298 297 298 299 299 299 299 299 300
329 330 330 325 322 322 320 319 318 318 318 317 316 317 315 312 311 309 308 307 307 306 304 304 303 302 301 301 300 300 299 299 299 299 299 299 300 301
328 327 327 325 324 322 321 319 318 318 317 317 316 309 309 307 308 306 306 306 307 306 305 303 303 303 302 301 301 301 300 299 298 299 300 300 301 302
324 325 324 324 323 322 320 320 318 318 317 315 307 305 304 303 304 303 304 305 306 305 305 303 302 302 302 301 300 298 298 299 300 300 302 303 304 303
312 315 318 319 319 318 319 318 316 316 317 312 305 303 302 303 302 302 303 304 304 304 302 301 301 301 300 299 298 299 300 301 302 303 305 307 308 308
303 304 305 305 305 306 307 306 304 305 306 306 304 303 302 301 301 301 302 303 303 301 299 299 299 298 298 298 297 299 302 303 303 304 304 305 306 307
299 299 300 299 299 299 300 299 299 299 300 300 300 300 300 300 301 301 301 300 299 298 298 296 297 296 295 295 296 298 303 303 305 303 301 298 299 305
297 297 298 298 298 298 298 298 298 298 298 298 297 297 297 299 299 301 300 299 298 298 297 296 297 295 296 294 295 298 298 298 301 304 304 301 299 299
297 295 294 295 295 295 295 295 294 294 294 294 294 296 297 298 298 298 298 298 297 298 297 296 295 294 293 293 293 294 297 297 297 298 302 305 304 301
295 295 294 294 293 293 292 292 292 292 292 292 294 294 295 295 296 296 296 296 296 296 295 295 295 295 293 292 292 293 295 297 296 297 302 301 300 300
295 295 294 294 293 293 293 292 292 292 292 292 292 293 294 295 294 294 292 292 292 292 293 293 293 293 293 292 291 291 293 294 294 294 297 298 296 297
295 294 294 294 294 292 291 291 291 292 292 291 292 292 292 292 292 292 291 291 290 291 291 291 292 292 292 292 292 291 291 292 292 292 293 294 294 295
294 293 292 292 292 292 291 292 291 292 291 291 291 292 291 291 291 291 291 290 290 289 289 290 291 291 292 291 290 290 290 291 292 293 294 293 293 294
292 291 291 292 292 291 291 291 292 292 291 292 292 291 291 290 290 290 290 290 290 289 289 289 290 290 290 290 291 290 290 290 291 292 293 292 291 294
290 291 291 291 291 291 291 291 291 291 291 291 291 290 290 290 290 290 290 290 290 289 289 289 290 291 293 292 288 290 289 290 291 291 291 290 289 290
290 290 290 290 290 290 291 290 290 290 290 290 290 290 290 290 290 290 290 290 291 290 289 289 290 291 294 291 289 288 290 289 290 289 288 289 289 291
291 291 290 290 290 289 290 290 289 290 289 290 289 289 289 290 290 290 290 290 291 290 290 289 290 291 292 290 288 288 289 290 290 290 288 288 287 287
290 290 290 290 289 289 289 291 290 290 290 289 289 289 289 290 290 290 290 290 291 290 291 290 290 290 290 291 289 287 286 288 288 289 289 289 288 288
289 290 289 289 290 289 289 289 290 289 290 290 289 289 289 290 290 290 290 290 290 290 290 289 290 290 291 290 289 288 287 287 288 289 290 290 291 290
Wind_Speed
31 30 29 29 31 32 29 24 15 5 9 16 18 26 30 28 29 24 19 20 22 22 21 22 23 22 20 20 20 21 24 26 27 29 30 31 30 28
29 28 29 27 27 28 26 26 24 20 6 17 21 19 27 26 23 23 19 20 20 20 20 23 23 21 19 21 23 25 27 29 29 32 33 33 31 28
29 29 30 27 27 28 28 25 24 25 12 19 18 23 22 23 18 17 19 17 19 22 23 21 20 20 20 23 26 28 30 31 33 36 36 35 31 29
28 27 28 22 28 30 28 29 28 27 24 12 22 18 25 23 21 18 19 18 17 19 20 19 17 19 22 24 26 29 32 34 35 37 37 35 32 29
23 24 27 25 26 30 29 26 27 28 28 23 21 23 20 21 17 16 17 16 16 18 15 19 23 19 19 24 25 26 29 31 33 34 33 33 33 31
31 31 31 33 31 33 29 29 28 28 28 26 23 17 22 21 18 15 16 16 15 16 17 20 18 18 21 20 21 24 27 28 32 33 33 33 32 31
30 32 33 36 33 36 32 31 32 31 29 29 21 7 14 16 17 13 15 14 15 18 16 17 15 15 13 17 19 18 24 29 32 32 34 35 32 32
27 29 31 33 34 37 39 35 30 28 26 18 10 12 9 13 15 13 14 12 4 16 16 14 14 17 14 16 21 25 31 29 27 27 29 33 32 33
22 21 22 23 24 29 35 37 38 30 32 30 24 22 17 19 17 20 19 20 14 9 8 12 11 12 14 18 20 24 24 19 20 21 25 28 33 36
15 14 12 10 9 11 14 12 8 9 13 17 15 15 17 18 22 21 21 20 11 9 5 4 6 11 12 14 19 22 16 13 17 11 12 23 34 39
20 18 14 15 14 13 9 11 11 9 6 7 2 7 9 11 15 19 19 13 3 6 9 5 5 8 9 10 17 15 10 8 11 18 15 21 13 11
11 11 10 8 6 7 6 5 5 3 4 5 7 9 10 12 12 12 10 9 5 5 11 7 3 2 3 6 13 10 6 8 11 29 37 39 40 48
13 12 12 12 10 9 6 5 4 7 6 5 7 7 7 9 11 14 11 12 11 6 8 8 3 1 2 3 9 7 6 19 22 29 39 38 34 42
12 11 11 12 11 11 9 7 6 5 5 5 8 9 9 10 12 12 12 8 9 7 4 6 3 2 3 2 2 6 9 14 11 31 38 39 40 39
14 12 9 11 11 11 9 9 9 8 9 7 8 10 12 12 11 9 10 11 10 11 10 11 7 4 4 6 5 3 7 12 18 22 40 41 43 47
16 11 11 12 12 13 12 10 10 12 11 12 12 11 11 11 12 15 13 8 6 6 7 8 9 5 4 9 14 9 14 8 16 20 33 39 36 40
15 11 12 11 10 12 10 9 10 10 12 12 10 10 11 11 14 15 11 10 5 5 4 5 6 7 6 15 13 11 18 21 23 26 36 35 30 33
9 8 10 10 10 10 10 9 11 10 12 11 12 13 13 15 15 14 11 10 8 7 7 10 16 14 13 15 16 18 21 22 24 25 28 36 31 32
9 11 9 10 10 10 9 9 8 8 9 9 11 12 13 16 17 15 11 10 7 9 9 13 13 9 3 5 7 17 19 26 32 30 28 30 30 31
11 12 12 11 10 9 9 8 7 6 6 8 9 11 14 17 16 14 12 10 8 9 9 12 10 9 7 6 7 11 21 24 29 31 34 34 33 33
14 13 12 11 9 8 7 6 7 7 6 7 8 10 14 17 15 15 12 10 9 8 9 9 10 7 18 20 15 15 17 19 29 39 34 32 24 18
16 14 11 8 7 7 6 6 7 7 7 6 6 9 12 16 16 15 14 13 9 9 11 11 15 18 18 18 19 18 21 24 27 34 24 22 18 12
17 12 9 7 7 7 6 6 6 6 6 4 5 7 10 15 15 14 14 13 10 13 17 16 14 14 12 19 25 22 26 28 29 24 22 16 8 16
Wind_Direction
237 238 237 241 232 230 228 216 214 218 221 233 219 222 222 228 229 228 220 237 245 253 256 257 259 259 261 265 269 274 279 283 285 285 283 283 284 278
240 237 239 238 237 237 231 226 223 229 245 225 221 215 210 215 220 220 224 237 245 242 252 260 258 257 262 268 276 280 283 283 282 282 280 278 276 271
242 241 242 239 240 238 230 226 223 222 235 242 226 218 213 198 209 210 223 233 246 252 256 260 258 262 269 276 279 282 283 282 281 278 275 272 269 265
242 239 245 241 246 240 224 221 218 218 225 228 226 212 198 191 204 220 222 232 237 255 253 248 260 269 280 283 283 283 282 281 281 277 273 268 264 258
250 246 251 249 247 239 224 221 222 222 224 228 229 212 187 194 199 227 230 234 235 249 256 263 276 279 281 285 290 287 283 281 277 277 275 271 260 255
257 257 251 246 251 240 227 223 223 222 222 221 220 214 185 185 195 208 228 231 230 236 243 255 265 274 286 288 294 293 292 286 280 279 276 268 256 247
260 251 254 259 246 240 232 226 222 222 218 216 216 165 161 157 173 191 228 227 228 234 248 256 264 272 271 285 288 280 278 277 279 277 275 271 249 246
271 273 268 261 257 246 237 231 231 228 220 213 166 157 151 154 172 198 226 238 232 228 244 256 267 276 275 276 273 286 290 288 275 274 271 266 253 248
308 306 290 272 263 259 256 248 243 236 226 198 171 163 158 181 192 206 220 223 218 227 213 257 262 277 281 281 286 300 299 291 272 272 272 263 255 243
8 357 354 339 323 281 250 229 187 171 175 180 177 176 181 181 204 212 222 221 208 203 243 265 270 279 286 286 302 308 297 285 272 277 267 276 265 250
46 43 46 54 47 41 55 59 64 66 92 129 151 176 173 196 218 214 183 161 134 217 238 256 267 285 296 299 324 323 302 281 255 138 86 82 91 154
38 44 45 43 20 3 3 353 335 317 283 264 230 250 227 231 214 229 206 177 154 182 210 217 233 313 314 3 354 348 359 172 201 149 109 96 96 105
2 8 10 2 355 347 336 320 296 277 259 261 241 237 233 227 222 216 202 210 194 221 187 198 211 159 240 330 10 18 127 139 119 125 123 126 112 105
354 354 354 351 347 342 333 319 306 294 279 266 256 252 235 213 223 219 213 201 201 215 172 229 230 167 176 105 45 88 130 170 126 121 128 128 124 122
330 317 323 332 335 334 329 309 297 292 286 267 244 231 238 238 229 202 196 211 229 237 246 240 241 239 174 146 139 146 126 117 134 117 127 130 127 131
330 316 306 322 331 317 315 309 295 281 272 257 253 257 256 237 214 206 191 200 204 221 223 232 229 204 150 160 158 137 132 146 137 131 121 121 123 129
317 302 308 325 329 321 312 301 293 283 263 260 255 241 238 227 198 199 195 182 190 188 177 178 196 178 160 154 123 136 128 129 137 132 121 111 113 122
309 304 315 318 316 312 311 306 299 289 274 261 258 246 225 201 181 180 186 187 180 180 173 165 146 124 105 97 137 129 123 118 128 125 124 113 105 124
324 316 311 316 312 312 311 305 289 291 287 277 264 243 217 193 180 173 169 181 178 177 184 179 172 160 144 110 115 143 134 135 124 112 107 105 109 117
315 310 310 314 312 306 308 302 302 303 303 294 269 240 214 189 174 175 176 177 174 172 167 188 192 189 152 141 124 118 149 134 127 116 113 120 125 133
320 315 314 310 306 302 300 306 307 313 305 299 269 230 209 187 174 175 181 180 166 161 162 179 199 201 138 139 114 114 134 146 142 137 131 124 126 134
314 309 306 299 307 313 313 315 317 324 319 304 278 236 211 195 180 178 181 175 176 179 158 153 159 154 142 146 137 126 117 130 138 141 140 151 150 157
310 304 302 296 304 317 320 323 324 321 322 302 277 243 214 189 185 188 183 177 180 149 150 150 155 156 139 144 139 134 128 130 134 122 113 132 134 165